Location: Dos Palmas
(32.4468°N, 116.8732°W)
Time: 00:38:13
(UTC+00:00)

Cosmos 2360 Rocket - Pass Details

Date: 20 June 2021
Orbit: 835 x 843 km, 71.0° (Epoch: 01 August)

Event Time Altitude Azimuth Distance (km) Brightness Sun altitude
Rises 03:36:15 0° 179° (S) 3,379 5.0 -7.8°
Reaches altitude 10° 03:38:50 10° 171° (S) 2,447 4.2 -8.2°
Maximum altitude 03:44:00 39° 104° (ESE) 1,237 2.6 -9.1°
Drops below altitude 10° 03:49:11 10° 37° (NE) 2,454 4.6 -10.0°
Sets 03:51:45 0° 30° (NNE) 3,391 5.4 -10.5°
